Change the Weather History Date:

Sunday, January 20, 2013

  Actual Average Record
Temperature  
Mean Temperature 49 °F -  
Max Temperature 65 °F 54 °F 79 °F (2012)
Min Temperature 33 °F 35 °F 21 °F (2001)
Degree Days  
Heating Degree Days 16    
Moisture  
Dew Point 40 °F    
Average Humidity 80    
Maximum Humidity 100    
Minimum Humidity 47    
Precipitation  
Precipitation 0.00 in - - ()
Sea Level Pressure  
Sea Level Pressure 30.22 in    
Wind  
Wind Speed 1 mph (SSE)    
Max Wind Speed 7 mph    
Max Gust Speed -    
Visibility 10 miles    
Events Rain    
Averages and records for this station are not official NWS values.
T = Trace of Precipitation, MM = Missing Value Source: NWS Daily Summary

Daily Weather History Graph

Daily Weather History Graph

Search for Another Location

Airport or City:

Trip Planner

Search our weather history database for the weather conditions in past years. The results will help you decide how hot, cold, wet, or windy it might be!

Date:

Astronomy

Jan. 20, 2013 Rise Set
Actual Time 7:15 AM CST 5:36 PM CST
Civil Twilight 6:48 AM CST 6:03 PM CST
Nautical Twilight 6:18 AM CST 6:33 PM CST
Astronomical Twilight 5:49 AM CST 7:02 PM CST
Moon 12:37 PM CST (1/20) 1:49 AM CST (1/20)
Length of Visible Light 11h 14m
Length of Day
10h 21m
Waxing Gibbous, 66% of the Moon is Illuminated
Jan 20
Waxing Gibbous
Jan 26
Full
Feb 3
Last Quarter
Feb 10
New
Feb 17
First Quarter

Hourly Weather History & Observations

Time (CST) Temp. Windchill Dew Point Humidity Pressure Visibility Wind Dir Wind Speed Gust Speed Precip Events Conditions
12:55 AM 37.6 °F - 32.9 °F 83% 30.26 in 10.0 mi Calm Calm - N/A   Clear
1:55 AM 36.0 °F - 32.5 °F 87% 30.26 in 10.0 mi Calm Calm - N/A   Clear
2:55 AM 35.8 °F - 31.1 °F 83% 30.26 in 10.0 mi Calm Calm - N/A   Clear
3:55 AM 35.2 °F - 32.0 °F 88% 30.25 in 10.0 mi Calm Calm - N/A   Clear
4:55 AM 33.8 °F - 30.7 °F 89% 30.25 in 10.0 mi Calm Calm - N/A   Clear
5:55 AM 34.3 °F - 31.5 °F 89% 30.25 in 10.0 mi Calm Calm - N/A   Clear
6:55 AM 33.1 °F - 31.5 °F 94% 30.26 in 10.0 mi Calm Calm - N/A   Partly Cloudy
7:04 AM 33.8 °F - 32.0 °F 93% 30.26 in 10.0 mi Calm Calm - N/A   Mostly Cloudy
7:13 AM 33.8 °F - 32.0 °F 93% 30.25 in 10.0 mi Calm Calm - N/A   Scattered Clouds
7:22 AM 33.8 °F - 32.0 °F 93% 30.26 in 10.0 mi Calm Calm - N/A   Mostly Cloudy
7:55 AM 33.6 °F - 31.6 °F 92% 30.26 in 10.0 mi Calm Calm - N/A   Overcast
8:03 AM 33.8 °F - 32.0 °F 93% 30.26 in 10.0 mi Calm Calm - N/A   Mostly Cloudy
8:23 AM 37.4 °F - 35.6 °F 93% 30.26 in 10.0 mi Calm Calm - N/A   Mostly Cloudy
8:51 AM 41.0 °F - 39.2 °F 93% 30.27 in 8.0 mi Calm Calm - N/A   Light Drizzle
8:55 AM 40.8 °F - 39.6 °F 95% 30.26 in 10.0 mi Calm Calm - 0.00 in   Light Drizzle
9:00 AM 41.0 °F - 41.0 °F 100% 30.26 in 10.0 mi Calm Calm - N/A   Mostly Cloudy
9:20 AM 42.8 °F 41.1 °F 42.8 °F 100% 30.27 in 7.0 mi SE 3.5 mph - N/A   Mostly Cloudy
9:38 AM 44.6 °F 42.2 °F 42.8 °F 93% 30.28 in 4.0 mi SSE 4.6 mph - N/A   Scattered Clouds
9:55 AM 46.6 °F - 44.6 °F 93% 30.28 in 9.0 mi SSE 5.8 mph - 0.00 in   Scattered Clouds
10:23 AM 48.2 °F - 44.6 °F 87% 30.29 in 9.0 mi South 3.5 mph - N/A   Light Drizzle
10:32 AM 50.0 °F - 44.6 °F 82% 30.28 in 10.0 mi SSE 3.5 mph - N/A   Clear
10:55 AM 51.4 °F - 45.7 °F 81% 30.28 in 10.0 mi SSE 4.6 mph - 0.00 in   Clear
11:30 AM 55.4 °F - 46.4 °F 72% 30.26 in 10.0 mi Calm Calm - N/A   Light Drizzle
11:39 AM 57.2 °F - 46.4 °F 67% 30.26 in 10.0 mi South 3.5 mph - N/A   Clear
11:55 AM 57.9 °F - 47.5 °F 68% 30.25 in 10.0 mi South 3.5 mph - 0.00 in   Clear
12:55 PM 62.8 °F - 47.5 °F 57% 30.21 in 10.0 mi SSW 3.5 mph - N/A   Clear
1:55 PM 64.8 °F - 45.1 °F 49% 30.17 in 10.0 mi Variable 3.5 mph - N/A   Clear
2:55 PM 65.5 °F - 45.0 °F 47% 30.15 in 10.0 mi SSE 6.9 mph - N/A   Partly Cloudy
3:55 PM 65.5 °F - 45.0 °F 47% 30.14 in 10.0 mi ESE 6.9 mph - N/A   Clear
4:55 PM 63.7 °F - 44.6 °F 50% 30.14 in 10.0 mi SSE 6.9 mph - N/A   Clear
5:28 PM 60.8 °F - 42.8 °F 52% 30.14 in 10.0 mi SE 4.6 mph - N/A Rain Light Rain
5:38 PM 59.0 °F - 42.8 °F 55% 30.14 in 10.0 mi SE 4.6 mph - N/A   Clear
5:55 PM 59.5 °F - 43.7 °F 56% 30.14 in 10.0 mi SSE 3.5 mph - 0.00 in   Clear
6:55 PM 52.0 °F - 43.5 °F 73% 30.15 in 10.0 mi Calm Calm - N/A   Clear
7:55 PM 47.8 °F - 43.0 °F 83% 30.15 in 10.0 mi SSE 4.6 mph - N/A   Clear
8:55 PM 47.5 °F - 41.9 °F 81% 30.15 in 10.0 mi Calm Calm - N/A   Clear
9:55 PM 46.6 °F - 41.7 °F 83% 30.16 in 10.0 mi SSE 4.6 mph - N/A   Clear
10:55 PM 44.6 °F 41.4 °F 42.1 °F 91% 30.17 in 10.0 mi South 5.8 mph - N/A   Clear
11:55 PM 45.5 °F 43.2 °F 42.1 °F 88% 30.16 in 10.0 mi SSE 4.6 mph - N/A   Clear